Location: Newark
(14.6100°N, 11.8447°W)
Time: 23:30:25
(UTC+00:00)

Hubble Space Telescope - Visible Passes

Search period start: 15 November 2019 00:00
Search period end: 25 November 2019 00:00
Orbit: 536 x 540 km, 28.5° (Epoch: 14 November)

Date Brightness Start Highest point End Pass type
(mag) Time Alt. Az. Time Alt. Az. Time Alt. Az.
15 Nov 3.0 05:05:43 16° S 05:05:43 16° S 05:07:22 10° SSE visible
15 Nov 0.9 18:40:15 10° SW 18:44:21 69° SSE 18:48:21 11° ENE visible
15 Nov 3.2 20:22:06 10° WNW 20:23:41 19° WNW 20:23:41 19° WNW visible
16 Nov 0.8 18:29:38 10° WSW 18:33:46 86° NNW 18:37:53 10° ENE visible
16 Nov 3.0 20:11:53 10° WNW 20:13:49 19° NW 20:13:49 19° NW visible
17 Nov 2.9 20:01:43 10° WNW 20:03:55 18° NNW 20:03:55 18° NNW visible
18 Nov 2.9 19:51:36 10° NW 19:53:59 16° NNW 19:53:59 16° NNW visible
19 Nov 3.0 19:41:30 10° NW 19:43:48 14° N 19:44:01 14° N visible
20 Nov 3.0 19:31:25 10° NW 19:33:24 13° N 19:34:03 13° N visible
21 Nov 3.1 19:21:20 10° NNW 19:22:59 12° N 19:24:04 11° N visible
22 Nov 3.1 19:11:10 10° NNW 19:12:36 11° N 19:14:02 10° NNE visible
23 Nov 3.1 19:00:52 10° NNW 19:02:12 11° N 19:03:33 10° NNE visible
24 Nov 3.0 18:50:24 10° NNW 18:51:49 11° N 18:53:13 10° NNE visible
